Miscellaneous Local Product
Issued by NWS North Platte, NE

Home | Current Version | Previous Version | Text Only | Print | Product List | Glossary On
Versions: 1 2 3 4 5 6 7 8 9 10 11 12 13 14 15 16 17 18 19 20 21 22 23 24 25 26 27 28 29 30 31 32 33 34 35 36 37 38 39 40 41 42 43 44 45 46 47 48 49 50
288
AXUS43 KLBF 132010
MISLBF


WESTERN AND NORTH CENTRAL NEBRASKA HOURLY WEATHER ROUNDUP
NATIONAL WEATHER SERVICE NORTH PLATTE NE
300 PM CDT SUN OCT 13 2019

NOTE: "FAIR" INDICATES FEW OR NO CLOUDS BELOW 12,000 FEET WITH NO
SIGNIFICANT WEATHER AND/OR OBSTRUCTIONS TO VISIBILITY.

NOTE: STATIONS NOT REPORTING SKY/WEATHER AND PRESSURE ARE
PROVIDED BY RAWS AND APRS NETWORKS AND ARE NOT UNDER NATIONAL
WEATHER SERVICE QUALITY CONTROL.

...OBSERVATIONS IN AND NEAR THE EASTERN PANHANDLE OF NEBRASKA...

CITY           SKY/WX    TMP DP  RH WIND       PRES   REMARKS
PINE RIDGE     SUNNY     58  17  20 CALM      29.93F
GORDON         FAIR      57  14  18 CALM      29.93F HAZE
ALLIANCE       SUNNY     63  22  20 CALM      29.91F
SIDNEY         SUNNY     69  11  10 S3        29.95F
CRESCENT LAKE    N/A     66  20  17 NW6G15      N/A
$$

...OBSERVATIONS IN NORTHERN NEBRASKA AND FAR SOUTHERN SOUTH DAKOTA...

CITY           SKY/WX    TMP DP  RH WIND       PRES   REMARKS
WINNER         FAIR      52  24  33 NW20G25   29.93F
VALENTINE      SUNNY     56  17  21 W15G22    29.94F
AINSWORTH      SUNNY     54  15  22 NW9G17    29.94F
O`NEILL        FAIR      55  26  33 NW15G22   29.93F
THEDFORD       SUNNY     59  23  25 NW7       29.95F
BROKEN BOW     FAIR      59  21  23 W9        29.94F
ORD            FAIR      58  21  24 W12       29.93F
ALBION         SUNNY     59  15  18 NW14G22   29.92F
EWING            N/A     54  32  43 W12G18      N/A
CHAMBERS         N/A     54  22  28 NW5G13      N/A
BUTTE            N/A     49  30  48 W13G23      N/A
SPRINGVIEW       N/A     56  19  23 W12G18      N/A
VALENTINE NWR    N/A     55  23  29 NW10        N/A
HALSEY           N/A     57  14  18 NW6G13      N/A
$$

...OBSERVATIONS IN SOUTHWEST NEBRASKA AND FAR NORTHEAST COLORADO...

CITY           SKY/WX    TMP DP  RH WIND       PRES   REMARKS
WRAY           FAIR      70  14  11 CALM      29.96F
HOLYOKE        FAIR      73  18  12 SW5       29.95
IMPERIAL       SUNNY     68  12  11 VRB3      29.94F
OGALLALA       SUNNY     68  19  15 SW3       29.93F
NORTH PLATTE   SUNNY     63  24  22 S5        29.93F
MCCOOK         SUNNY     66  22  18 VRB5      29.94F
LEXINGTON      FAIR      61  24  23 W9        29.95F
CALLAWAY         N/A     58  28  32 W10         N/A
STAPLETON        N/A     61  27  27 CALM        N/A
$$

...OBSERVATIONS IN CENTRAL LINCOLN COUNTY AREA...

CITY           SKY/WX    TMP DP  RH WIND       PRES   REMARKS
N.P. AIRPORT   SUNNY     63  24  22 S5        29.93F
N.P. HILLCREST   N/A     64  29  26 CALM        N/A
N.P. DOWNTOWN    N/A     64  31  28 CALM        N/A
N.P. SOUTHEAST   N/A     63  27  25 CALM        N/A
$$

...OBSERVATIONS ACROSS THE ROCKIES AND WESTERN HIGH PLAINS...

CITY           SKY/WX    TMP DP  RH WIND       PRES   REMARKS
SCOTTSBLUFF    SUNNY     65  21  18 NE6       29.93F
KIMBALL        SUNNY     67  13  12 CALM      29.96F
CHEYENNE       SUNNY     66   4   8 W17G25    29.98F
DENVER         SUNNY     69   3   7 CALM      29.97F
STEAMBOAT      FAIR      57   8  14 SW7       30.10F
COPPER MTN     SUNNY     45  -6  12 W13       30.30
LEADVILLE      SUNNY     51 -13   6 N16G29    30.19F
ASPEN          SUNNY     60   3  10 N9        30.11F
GUNNISON       SUNNY     54  -4   9 CALM      30.15F
TELLURIDE      SUNNY     55   1  11 S3G10     30.21F
LARAMIE        SUNNY     60   5  11 SW22      30.02F
CASPER         SUNNY     63  15  15 SW16G26   29.93F
SHERIDAN       SUNNY     65  17  15 NE5       29.88F
JACKSON HOLE   SUNNY     52  19  27 VRB7      30.02F
YELLOWSTONE      N/A     49  13  23 SW7       30.05F
$$

...OBSERVATIONS ACROSS THE NORTHERN PLAINS...

CITY           SKY/WX    TMP DP  RH WIND       PRES   REMARKS
RAPID CITY     SUNNY     53  21  28 CALM      29.92F
PIERRE         SUNNY     48  29  47 NW14      29.92F
SIOUX FALLS    PTSUNNY   45  30  55 NW23G31   29.90S
ABERDEEN       CLOUDY    38  28  67 NW16      29.91R
WILLISTON      SUNNY     46  17  31 W9        29.89F
DICKINSON      SUNNY     47  17  30 NW8G18    29.87F
BISMARCK       CLOUDY    38  29  70 NW13      29.91S
FARGO          PTSUNNY   41  32  70 N9        29.83S
$$

...OBSERVATIONS ACROSS THE CENTRAL AND SOUTHERN PLAINS...

CITY           SKY/WX    TMP DP  RH WIND       PRES   REMARKS
GRAND ISLAND   SUNNY     60  23  24 NW9G21    29.95F
LINCOLN        SUNNY     61  22  22 W14       29.94F
OMAHA          MOSUNNY   58  30  34 W14       29.91F
DES MOINES     MOSUNNY   53  32  44 NW14G23   29.89F
KANSAS CITY    SUNNY     61  30  31 SW7       29.96F
WICHITA        SUNNY     69  37  30 CALM      29.95F
DODGE CITY     SUNNY     75  33  21 VRB7      29.95F
OKLAHOMA CITY  SUNNY     76  38  25 S10       29.93F
DALLAS         MOSUNNY   76  41  28 SE5       29.96F
AMARILLO       SUNNY     75  29  18 NW7       29.94F
$$




USA.gov is the U.S. government's official web portal to all federal, state and local government web resources and services.